Location: Ward Pound Ridge Reservation
(41.2500°N, 73.6000°W)
Time: 20:18:42
(UTC-04:00)

Vanguard 2 - Visible Passes

Search period start: 23 October 2017 00:00
Search period end: 02 November 2017 00:00
Orbit: 553 x 2939 km, 32.9° (Epoch: 22 October)

Date Brightness Start Highest point End Pass type
(mag) Time Alt. Az. Time Alt. Az. Time Alt. Az.
23 Oct 11.8 05:28:23 10° S 05:40:33 23° SE 05:51:02 10° E visible
24 Oct 11.5 05:44:32 10° SSW 05:58:30 30° SSE 06:10:12 10° E visible
25 Oct 11.9 03:57:58 10° SSE 04:06:02 15° SE 04:13:48 10° ESE visible
25 Oct 11.3 06:01:16 10° SSW 06:16:29 36° SSE 06:28:57 10° E visible
26 Oct 11.7 04:12:28 10° S 04:23:47 21° SE 04:34:33 10° E visible
26 Oct 11.1 06:18:24 10° SW 06:34:30 43° SSE 06:47:25 10° E visible
27 Oct 11.5 04:28:16 10° SSW 04:41:34 27° SE 04:54:05 10° E visible
27 Oct 11.0 06:35:52 10° SW 06:52:34 49° SSE 07:05:46 10° E visible
28 Oct 11.9 02:45:10 10° SSE 02:49:29 11° SE 02:53:52 10° ESE visible
28 Oct 11.3 04:44:45 10° SSW 04:59:23 34° SSE 05:13:03 10° E visible
28 Oct 10.8 06:53:35 10° SW 07:10:41 55° SSE 07:23:59 10° E visible
29 Oct 11.6 02:59:12 12° SSE 03:07:03 17° SE 03:16:36 10° ESE visible
29 Oct 11.1 05:01:42 10° SSW 05:17:16 41° SSE 05:31:41 10° E visible
30 Oct 11.4 03:17:03 17° S 03:24:38 23° SE 03:36:47 10° E visible
30 Oct 10.9 05:18:59 10° SW 05:35:14 47° SSE 05:50:09 10° E visible
31 Oct 11.2 03:34:47 22° S 03:42:16 30° SE 03:56:06 10° E visible
31 Oct 10.8 05:36:32 10° SW 05:53:16 53° SSE 06:08:28 10° E visible
01 Nov 11.7 01:50:56 12° SE 01:50:56 12° SE 01:56:24 10° ESE visible
01 Nov 11.0 03:52:24 26° S 03:59:59 37° SSE 04:14:59 10° E visible
01 Nov 10.7 05:54:19 10° WSW 06:11:22 58° SSE 06:26:43 10° E visible
